| time (UTC) | temp F | wind direction | speed MPH | gust MPH | rain 1hr in | rain 24hr in | rain mn in | humidity % | barometer mb |
| 20260509183502 | 58 | 291 | 2.0 | 3.0 | 0.00 | 0.00 | 0.00 | 81 | 1013.3 |
| 20260509182439 | 58 | 292 | 2.0 | 2.0 | 0.00 | 0.00 | 0.00 | 82 | 1013.5 |
| 20260509181416 | 59 | 283 | 2.0 | 2.0 | 0.00 | 0.00 | 0.00 | 81 | 1013.3 |
| 20260509180350 | 59 | 292 | 1.0 | 2.0 | 0.00 | 0.00 | 0.00 | 80 | 1013.3 |
| 20260509175342 | 59 | 282 | 2.0 | 2.0 | 0.00 | 0.00 | 0.00 | 77 | 1013.4 |
| 20260509174318 | 59 | 283 | 2.0 | 2.0 | 0.00 | 0.00 | 0.00 | 77 | 1013.4 |
| 20260509173254 | 60 | 282 | 1.0 | 2.0 | 0.00 | 0.00 | 0.00 | 77 | 1013.4 |
| 20260509172241 | 60 | 283 | 1.0 | 2.0 | 0.00 | 0.00 | 0.00 | 74 | 1013.4 |
| 20260509171222 | 61 | 283 | 1.0 | 2.0 | 0.00 | 0.00 | 0.00 | 72 | 1013.1 |
| 20260509170159 | 61 | 279 | 0.0 | 1.0 | 0.00 | 0.00 | 0.00 | 72 | 1013.1 |
| 20260509165141 | 62 | 268 | 0.0 | 0.0 | 0.00 | 0.00 | 0.00 | 68 | 1013.2 |
| 20260509164127 | 63 | 268 | 0.0 | 1.0 | 0.00 | 0.00 | 0.00 | 68 | 1013.1 |
| 20260509163103 | 63 | 264 | 0.0 | 1.0 | 0.00 | 0.00 | 0.00 | 69 | 1013.2 |
| 20260509162039 | 63 | 277 | 0.0 | 0.0 | 0.00 | 0.00 | 0.00 | 67 | 1013.2 |
| 20260509161016 | 63 | 234 | 0.0 | 0.0 | 0.00 | 0.00 | 0.00 | 67 | 1013.4 |
| 20260509155952 | 64 | 257 | 0.0 | 0.0 | 0.00 | 0.00 | 0.00 | 67 | 1013.4 |
| 20260509154941 | 64 | 249 | 0.0 | 0.0 | 0.00 | 0.00 | 0.00 | 67 | 1013.4 |
| 20260509153920 | 64 | 251 | 0.0 | 1.0 | 0.00 | 0.00 | 0.00 | 64 | 1013.4 |
| 20260509152855 | 64 | 281 | 0.0 | 1.0 | 0.00 | 0.00 | 0.00 | 64 | 1013.7 |
| 20260509151841 | 65 | 231 | 0.0 | 1.0 | 0.00 | 0.00 | 0.00 | 62 | 1013.9 |
| 20260509150823 | 65 | 273 | 2.0 | 3.0 | 0.00 | 0.00 | 0.00 | 64 | 1013.9 |
| 20260509145800 | 65 | 253 | 0.0 | 1.0 | 0.00 | 0.00 | 0.00 | 65 | 1014.0 |
| 20260509144741 | 64 | 254 | 0.0 | 1.0 | 0.00 | 0.00 | 0.00 | 66 | 1014.1 |
| 20260509143727 | 65 | 259 | 0.0 | 1.0 | 0.00 | 0.00 | 0.00 | 65 | 1014.0 |
| 20260509142703 | 66 | 246 | 2.0 | 3.0 | 0.00 | 0.00 | 0.00 | 65 | 1014.0 |
| 20260509141639 | 64 | 256 | 0.0 | 1.0 | 0.00 | 0.00 | 0.00 | 69 | 1014.0 |
| 20260509140615 | 64 | 269 | 0.0 | 0.0 | 0.00 | 0.00 | 0.00 | 68 | 1014.1 |
| 20260509135551 | 64 | 223 | 1.0 | 2.0 | 0.00 | 0.00 | 0.00 | 68 | 1014.3 |
| 20260509134540 | 64 | 263 | 0.0 | 0.0 | 0.00 | 0.00 | 0.00 | 69 | 1014.4 |
| 20260509133519 | 64 | 265 | 1.0 | 2.0 | 0.00 | 0.00 | 0.00 | 67 | 1014.4 |
| 20260509132456 | 65 | 184 | 0.0 | 1.0 | 0.00 | 0.00 | 0.00 | 65 | 1014.6 |
| 20260509131441 | 65 | 264 | 0.0 | 2.0 | 0.00 | 0.00 | 0.00 | 67 | 1014.7 |
| 20260509130424 | 65 | 273 | 4.0 | 8.0 | 0.00 | 0.00 | 0.00 | 65 | 1014.4 |
| 20260509125400 | 65 | 247 | 1.0 | 3.0 | 0.00 | 0.00 | 0.00 | 67 | 1014.6 |
| 20260509124341 | 65 | 253 | 2.0 | 3.0 | 0.00 | 0.00 | 0.00 | 67 | 1014.7 |
| 20260509123326 | 65 | 249 | 2.0 | 4.0 | 0.00 | 0.00 | 0.00 | 67 | 1014.4 |
| 20260509122306 | 64 | 237 | 1.0 | 2.0 | 0.00 | 0.00 | 0.00 | 67 | 1014.9 |
| 20260509121241 | 63 | 248 | 0.0 | 1.0 | 0.00 | 0.00 | 0.00 | 70 | 1015.0 |
| 20260509120232 | 64 | 230 | 2.0 | 3.0 | 0.00 | 0.00 | 0.00 | 70 | 1014.8 |
| 20260509115207 | 64 | 229 | 1.0 | 2.0 | 0.00 | 0.00 | 0.00 | 69 | 1015.0 |
| 20260509114159 | 65 | 243 | 1.0 | 2.0 | 0.00 | 0.00 | 0.00 | 67 | 1015.1 |
| 20260509113141 | 65 | 175 | 2.0 | 3.0 | 0.00 | 0.00 | 0.00 | 67 | 1014.9 |
| 20260509112128 | 64 | 268 | 1.0 | 3.0 | 0.00 | 0.00 | 0.00 | 68 | 1015.0 |
| 20260509111119 | 66 | 257 | 1.0 | 3.0 | 0.00 | 0.00 | 0.00 | 67 | 1015.0 |
| 20260509110057 | 66 | 124 | 2.0 | 3.0 | 0.00 | 0.00 | 0.00 | 66 | 1014.8 |
| 20260509105041 | 65 | 229 | 2.0 | 3.0 | 0.00 | 0.00 | 0.00 | 68 | 1015.4 |
| 20260509104024 | 66 | 255 | 1.0 | 2.0 | 0.00 | 0.00 | 0.00 | 65 | 1015.1 |
| 20260509103015 | 65 | 215 | 2.0 | 4.0 | 0.00 | 0.00 | 0.00 | 68 | 1015.2 |
| 20260509102007 | 65 | 233 | 2.0 | 3.0 | 0.00 | 0.00 | 0.00 | 67 | 1015.2 |
| 20260509100959 | 65 | 258 | 1.0 | 2.0 | 0.00 | 0.00 | 0.00 | 67 | 1015.3 |
| 20260509095936 | 66 | 264 | 0.0 | 1.0 | 0.00 | 0.00 | 0.00 | 65 | 1015.5 |
| 20260509094912 | 65 | 264 | 0.0 | 1.0 | 0.00 | 0.00 | 0.00 | 69 | 1015.4 |
| 20260509093848 | 64 | 246 | 2.0 | 3.0 | 0.00 | 0.00 | 0.00 | 67 | 1015.3 |
| 20260509092839 | 63 | 250 | 1.0 | 2.0 | 0.00 | 0.00 | 0.00 | 66 | 1015.4 |
| 20260509091831 | 64 | 242 | 2.0 | 3.0 | 0.00 | 0.00 | 0.00 | 66 | 1015.5 |
| 20260509090808 | 64 | 245 | 3.0 | 5.0 | 0.00 | 0.00 | 0.00 | 65 | 1015.5 |
| 20260509085743 | 63 | 257 | 1.0 | 1.0 | 0.00 | 0.00 | 0.00 | 69 | 1015.7 |
| 20260509084721 | 62 | 241 | 0.0 | 1.0 | 0.00 | 0.00 | 0.00 | 67 | 1015.6 |
| 20260509083657 | 63 | 198 | 1.0 | 2.0 | 0.00 | 0.00 | 0.00 | 67 | 1015.7 |
| 20260509082642 | 62 | 258 | 1.0 | 2.0 | 0.00 | 0.00 | 0.00 | 66 | 1015.8 |
| 20260509081623 | 61 | 243 | 0.0 | 1.0 | 0.00 | 0.00 | 0.00 | 65 | 1015.8 |
| 20260509080600 | 61 | 240 | 0.0 | 0.0 | 0.00 | 0.00 | 0.00 | 62 | 1016.0 |
| 20260509075535 | 60 | 238 | 1.0 | 2.0 | 0.00 | 0.00 | 0.00 | 63 | 1016.1 |
| 20260509074512 | 58 | 252 | 0.0 | 1.0 | 0.00 | 0.00 | 0.00 | 64 | 1016.0 |
| 20260509073448 | 59 | 254 | 0.0 | 0.0 | 0.00 | 0.00 | 0.00 | 68 | 1016.2 |
| 20260509072439 | 57 | 241 | 0.0 | 0.0 | 0.00 | 0.00 | 0.00 | 70 | 1016.4 |
| 20260509071416 | 57 | 240 | 0.0 | 0.0 | 0.00 | 0.00 | 0.00 | 71 | 1016.3 |
| 20260509070352 | 55 | 242 | 0.0 | 1.0 | 0.00 | 0.00 | 0.00 | 72 | 1016.3 |
| 20260509065341 | 56 | 286 | 0.0 | 1.0 | 0.00 | 0.00 | 0.00 | 71 | 1016.2 |
| 20260509064321 | 55 | 286 | 0.0 | 0.0 | 0.00 | 0.00 | 0.00 | 72 | 1016.5 |
| 20260509063255 | 57 | 286 | 0.0 | 0.0 | 0.00 | 0.00 | 0.00 | 72 | 1016.6 |
| 20260509062247 | 53 | 287 | 0.0 | 0.0 | 0.00 | 0.00 | 0.00 | 78 | 1016.6 |
| 20260509061239 | 51 | 286 | 0.0 | 0.0 | 0.00 | 0.00 | 0.00 | 83 | 1016.4 |
| 20260509060216 | 54 | 286 | 0.0 | 0.0 | 0.00 | 0.00 | 0.00 | 79 | 1016.5 |
| 20260509055152 | 49 | 290 | 0.0 | 0.0 | 0.00 | 0.00 | 0.00 | 88 | 1016.4 |
| 20260509054141 | 45 | 298 | 0.0 | 0.0 | 0.00 | 0.00 | 0.00 | 94 | 1016.3 |
| 20260509053119 | 45 | 288 | 0.0 | 0.0 | 0.00 | 0.00 | 0.00 | 97 | 1016.4 |
| 20260509052056 | 45 | 304 | 0.0 | 0.0 | 0.00 | 0.00 | 0.00 | 97 | 1016.1 |
| 20260509051041 | 44 | 288 | 0.0 | 0.0 | 0.00 | 0.00 | 0.00 | 98 | 1016.3 |
| 20260509050023 | 43 | 288 | 0.0 | 0.0 | 0.00 | 0.00 | 0.00 | 99 | 1016.4 |
| 20260509045000 | 43 | 288 | 0.0 | 0.0 | 0.00 | 0.00 | 0.00 | 99 | 1016.3 |
| 20260509043941 | 43 | 289 | 0.0 | 0.0 | 0.00 | 0.00 | 0.00 | 99 | 1016.1 |
| 20260509042928 | 43 | 288 | 0.0 | 0.0 | 0.00 | 0.00 | 0.00 | 98 | 1016.0 |
| 20260509041904 | 43 | 292 | 0.0 | 0.0 | 0.00 | 0.00 | 0.00 | 98 | 1015.9 |
| 20260509040840 | 43 | 293 | 0.0 | 0.0 | 0.00 | 0.00 | 0.00 | 98 | 1015.9 |
| 20260509035816 | 43 | 288 | 0.0 | 0.0 | 0.00 | 0.00 | 0.00 | 98 | 1015.9 |
| 20260509034752 | 42 | 300 | 0.0 | 0.0 | 0.00 | 0.00 | 0.00 | 98 | 1015.9 |
| 20260509033741 | 43 | 300 | 0.0 | 0.0 | 0.00 | 0.00 | 0.00 | 98 | 1016.1 |
| 20260509032720 | 43 | 300 | 0.0 | 0.0 | 0.00 | 0.00 | 0.00 | 98 | 1015.9 |
| 20260509031656 | 43 | 299 | 0.0 | 0.0 | 0.00 | 0.00 | 0.00 | 98 | 1016.1 |
| 20260509030641 | 43 | 300 | 0.0 | 0.0 | 0.00 | 0.00 | 0.00 | 98 | 1015.9 |
| 20260509025623 | 43 | 300 | 0.0 | 0.0 | 0.00 | 0.00 | 0.00 | 98 | 1016.0 |
| 20260509024600 | 43 | 300 | 0.0 | 0.0 | 0.00 | 0.00 | 0.00 | 98 | 1016.1 |
| 20260509023541 | 44 | 300 | 0.0 | 0.0 | 0.00 | 0.00 | 0.00 | 97 | 1015.8 |
| 20260509022528 | 44 | 300 | 0.0 | 0.0 | 0.00 | 0.00 | 0.00 | 97 | 1015.9 |
| 20260509021505 | 44 | 300 | 0.0 | 0.0 | 0.00 | 0.00 | 0.00 | 97 | 1016.0 |
| 20260509020439 | 44 | 300 | 0.0 | 0.0 | 0.00 | 0.00 | 0.00 | 97 | 1015.8 |
| 20260509015415 | 44 | 300 | 0.0 | 1.0 | 0.00 | 0.00 | 0.00 | 96 | 1016.0 |
| 20260509014352 | 44 | 300 | 1.0 | 1.0 | 0.00 | 0.00 | 0.00 | 97 | 1016.0 |
| 20260509013341 | 44 | 300 | 0.0 | 0.0 | 0.00 | 0.00 | 0.00 | 98 | 1015.9 |
| 20260509012321 | 44 | 300 | 0.0 | 0.0 | 0.00 | 0.00 | 0.00 | 97 | 1016.1 |
| 20260509011255 | 44 | 300 | 0.0 | 0.0 | 0.00 | 0.00 | 0.00 | 97 | 1015.8 |
| 20260509010241 | 44 | 300 | 0.0 | 0.0 | 0.00 | 0.00 | 0.00 | 97 | 1015.9 |
| 20260509005224 | 45 | 300 | 0.0 | 0.0 | 0.00 | 0.00 | 0.00 | 97 | 1015.8 |
| 20260509004159 | 45 | 300 | 0.0 | 0.0 | 0.00 | 0.00 | 0.00 | 97 | 1015.8 |
| 20260509003141 | 45 | 300 | 0.0 | 0.0 | 0.00 | 0.00 | 0.00 | 97 | 1015.6 |
| 20260509002127 | 45 | 300 | 0.0 | 0.0 | 0.00 | 0.00 | 0.00 | 97 | 1015.9 |
| 20260509001104 | 45 | 300 | 0.0 | 1.0 | 0.00 | 0.00 | 0.00 | 97 | 1016.2 |
| 20260509000041 | 45 | 300 | 0.0 | 1.0 | 0.00 | 0.00 | 0.00 | 97 | 1016.0 |
| 20260508235015 | 45 | 300 | 0.0 | 0.0 | 0.00 | 0.00 | 0.00 | 97 | 1016.1 |
| 20260508233953 | 45 | 301 | 0.0 | 0.0 | 0.00 | 0.00 | 0.00 | 97 | 1015.8 |
| 20260508232940 | 46 | 300 | 0.0 | 1.0 | 0.00 | 0.00 | 0.00 | 97 | 1016.1 |
| 20260508231919 | 46 | 300 | 1.0 | 1.0 | 0.00 | 0.00 | 0.00 | 97 | 1016.2 |
| 20260508230855 | 46 | 289 | 0.0 | 0.0 | 0.00 | 0.00 | 0.00 | 97 | 1016.2 |
| 20260508225841 | 46 | 290 | 0.0 | 0.0 | 0.00 | 0.00 | 0.00 | 96 | 1016.2 |
| 20260508224823 | 46 | 290 | 0.0 | 0.0 | 0.00 | 0.00 | 0.00 | 96 | 1016.2 |
| 20260508223759 | 46 | 293 | 0.0 | 0.0 | 0.00 | 0.00 | 0.00 | 96 | 1016.2 |
| 20260508222740 | 46 | 284 | 0.0 | 0.0 | 0.00 | 0.00 | 0.00 | 96 | 1016.1 |
| 20260508221728 | 47 | 282 | 0.0 | 1.0 | 0.00 | 0.00 | 0.00 | 96 | 1016.2 |
| 20260508220704 | 47 | 289 | 0.0 | 0.0 | 0.00 | 0.00 | 0.00 | 96 | 1016.0 |
| 20260508215640 | 47 | 289 | 0.0 | 0.0 | 0.00 | 0.00 | 0.00 | 96 | 1015.9 |
| 20260508214617 | 48 | 292 | 1.0 | 2.0 | 0.00 | 0.00 | 0.00 | 95 | 1016.0 |
| 20260508213552 | 48 | 288 | 1.0 | 1.0 | 0.00 | 0.00 | 0.00 | 95 | 1016.1 |
| 20260508212540 | 48 | 288 | 1.0 | 2.0 | 0.00 | 0.00 | 0.00 | 95 | 1016.1 |
| 20260508211519 | 48 | 293 | 1.0 | 1.0 | 0.00 | 0.00 | 0.00 | 94 | 1016.1 |
| 20260508210456 | 49 | 288 | 1.0 | 1.0 | 0.00 | 0.00 | 0.00 | 94 | 1015.9 |
| 20260508205441 | 48 | 289 | 1.0 | 1.0 | 0.00 | 0.00 | 0.00 | 94 | 1016.1 |
| 20260508204424 | 49 | 272 | 0.0 | 0.0 | 0.00 | 0.00 | 0.00 | 94 | 1016.0 |
| 20260508203359 | 49 | 287 | 1.0 | 2.0 | 0.00 | 0.00 | 0.00 | 93 | 1015.7 |
| 20260508202340 | 49 | 293 | 2.0 | 2.0 | 0.00 | 0.00 | 0.00 | 94 | 1015.9 |
| 20260508201328 | 49 | 263 | 0.0 | 0.0 | 0.00 | 0.00 | 0.00 | 93 | 1015.7 |
| 20260508200304 | 50 | 288 | 0.0 | 0.0 | 0.00 | 0.00 | 0.00 | 91 | 1015.5 |
| 20260508195239 | 50 | 293 | 2.0 | 2.0 | 0.00 | 0.00 | 0.00 | 92 | 1015.5 |
| 20260508194215 | 51 | 282 | 1.0 | 2.0 | 0.00 | 0.00 | 0.00 | 92 | 1015.3 |
| 20260508193153 | 51 | 281 | 0.0 | 0.0 | 0.00 | 0.00 | 0.00 | 91 | 1015.0 |
| 20260508192140 | 51 | 290 | 1.0 | 2.0 | 0.00 | 0.00 | 0.00 | 90 | 1015.1 |
| 20260508191120 | 52 | 290 | 1.0 | 2.0 | 0.00 | 0.00 | 0.00 | 89 | 1014.9 |
| 20260508190056 | 52 | 285 | 0.0 | 0.0 | 0.00 | 0.00 | 0.00 | 88 | 1014.7 |
| 20260508185040 | 53 | 264 | 0.0 | 0.0 | 0.00 | 0.00 | 0.00 | 88 | 1014.5 |